Location: Unspecified
(48.8582°N, 2.2947°E)
Time: 22:45:38
(UTC+02:00)

ISS - Pass Details

Date: 30 March 2019
Orbit: 408 x 410 km, 51.6° (Epoch: 22 April)

Event Time Altitude Azimuth Distance (km) Brightness Sun altitude
Rises 20:48:57 0° 283° (WNW) 2,339 1.7 -15.1°
Reaches altitude 10° 20:51:04 10° 288° (WNW) 1,477 0.4 -15.5°
Maximum altitude 20:54:19 52° 6° (N) 514 -3.3 -15.9°
Enters shadow 20:55:36 31° 68° (ENE) 752 -2.9 -16.1°
